EW2649 Weather Reports


Display with metric or nautical units.
time (UTC)temp
F
wind
direction
speed
MPH
gust
MPH
rain 1hr
in
rain 24hr
in
rain mn
in
humidity
%
barometer
mb
20260507201621 70 42 3.0 9.0 0.00 0.00 0.00 68 1014.1
20260507200053 69 17 2.0 5.0 0.00 0.00 0.00 72 1014.1
20260507194623 68 9 2.0 5.0 0.00 0.00 0.00 75 1014.2
20260507193022 67 334 1.0 5.0 0.00 0.00 0.00 75 1014.4
20260507191609 66 24 2.0 5.0 0.00 0.00 0.00 77 1014.7
20260507190032 64 136 1.0 6.0 0.00 0.00 0.00 77 1014.8
20260507184550 64 30 1.0 5.0 0.00 0.00 0.00 79 1015.0
20260507183046 63 129 2.0 7.0 0.00 0.00 0.00 80 1015.1
20260507181537 62 40 1.0 5.0 0.00 0.00 0.00 84 1015.1
20260507180037 61 45 1.0 5.0 0.00 0.00 0.00 84 1015.2
20260507174528 59 74 2.0 4.0 0.00 0.00 0.00 87 1015.3
20260507173030 58 138 2.0 6.0 0.00 0.00 0.00 87 1015.3
20260507171518 57 153 0.0 4.0 0.00 0.00 0.00 88 1015.3
20260507170016 57 114 2.0 4.0 0.00 0.00 0.00 88 1015.3
20260507164511 57 97 1.0 3.0 0.00 0.00 0.00 90 1015.2
20260507163010 56 59 2.0 7.0 0.00 0.00 0.00 89 1015.2
20260507161503 56 180 1.0 4.0 0.00 0.00 0.00 90 1015.3
20260507160100 56 84 0.0 3.0 0.00 0.00 0.00 89 1015.3
20260507154559 55 116 2.0 3.0 0.00 0.00 0.00 90 1015.3
20260507153049 55 92 1.0 3.0 0.00 0.00 0.00 90 1015.3
20260507151546 55 82 1.0 3.0 0.00 0.00 0.00 90 1015.2
20260507150043 55 89 0.0 2.0 0.00 0.00 0.00 90 1015.2
20260507144539 55 88 0.0 2.0 0.00 0.00 0.00 90 1015.3
20260507143038 54 89 0.0 2.0 0.00 0.00 0.00 90 1015.3
20260507141534 54 104 0.0 2.0 0.00 0.00 0.00 90 1015.2
20260507140032 54 106 0.0 2.0 0.00 0.00 0.00 90 1015.0
20260507134532 54 115 1.0 2.0 0.00 0.00 0.00 90 1014.9
20260507133029 54 128 0.0 2.0 0.00 0.00 0.00 90 1014.9
20260507131534 54 130 0.0 1.0 0.00 0.00 0.00 90 1014.8
20260507130027 55 223 0.0 1.0 0.00 0.00 0.00 90 1014.7
20260507124531 55 223 0.0 1.0 0.00 0.00 0.00 90 1014.6
20260507123028 55 223 0.0 2.0 0.00 0.00 0.00 90 1014.6
20260507121525 55 223 1.0 4.0 0.00 0.00 0.00 90 1014.7
20260507120027 55 223 1.0 3.0 0.00 0.00 0.00 90 1014.7
20260507114522 55 223 0.0 3.0 0.00 0.00 0.00 90 1014.9
20260507113023 54 223 0.0 2.0 0.00 0.00 0.00 90 1014.9
20260507111521 54 223 1.0 2.0 0.00 0.00 0.00 90 1014.9
20260507110021 54 211 1.0 4.0 0.00 0.00 0.00 90 1014.9
20260507104520 55 219 3.0 4.0 0.00 0.00 0.00 90 1015.0
20260507103019 55 192 1.0 3.0 0.00 0.00 0.00 90 1015.0
20260507101519 55 191 0.0 3.0 0.00 0.00 0.00 90 1015.0
20260507100017 55 190 0.0 2.0 0.00 0.00 0.00 90 1014.8
20260507094515 55 190 1.0 3.0 0.00 0.00 0.00 90 1014.9
20260507093015 55 190 0.0 1.0 0.00 0.00 0.00 90 1015.0
20260507091511 55 190 0.0 2.0 0.00 0.00 0.00 90 1015.1
20260507090020 54 180 0.0 2.0 0.00 0.00 0.00 90 1015.2
20260507084508 54 181 0.0 2.0 0.00 0.00 0.00 90 1015.3
20260507083001 54 181 0.0 2.0 0.00 0.00 0.00 90 1015.4
20260507081601 54 181 1.0 3.0 0.00 0.00 0.00 90 1015.4
20260507080119 53 198 0.0 2.0 0.00 0.00 0.00 90 1015.4
20260507074558 53 198 1.0 2.0 0.00 0.00 0.00 90 1015.5
20260507073104 53 198 1.0 2.0 0.00 0.00 0.00 90 1015.4
20260507071550 52 198 0.0 2.0 0.00 0.00 0.00 90 1015.5
20260507070047 52 198 0.0 3.0 0.00 0.00 0.00 90 1015.6
20260507064547 52 198 1.0 3.0 0.00 0.00 0.00 89 1015.7
20260507063050 52 198 1.0 2.0 0.00 0.00 0.00 89 1015.6
20260507061546 53 198 0.0 2.0 0.00 0.00 0.00 88 1015.5
20260507060045 53 197 1.0 3.0 0.00 0.00 0.00 88 1015.5
20260507054546 54 180 2.0 4.0 0.00 0.00 0.00 87 1015.5
20260507053044 54 175 0.0 3.0 0.00 0.00 0.00 87 1015.5
20260507051544 55 175 1.0 4.0 0.00 0.00 0.00 87 1015.4
20260507050042 55 184 3.0 6.0 0.00 0.00 0.00 87 1015.5
20260507044543 55 177 2.0 5.0 0.00 0.00 0.00 86 1015.4
20260507043042 56 168 3.0 6.0 0.00 0.00 0.00 85 1015.3
20260507041541 56 156 4.0 8.0 0.00 0.00 0.00 85 1015.1
20260507040043 56 160 3.0 6.0 0.00 0.00 0.00 84 1014.8
20260507034540 57 178 2.0 4.0 0.00 0.00 0.00 84 1014.7
20260507033039 57 179 5.0 10.0 0.00 0.00 0.00 84 1014.5
20260507031539 58 179 5.0 8.0 0.00 0.00 0.00 83 1014.3
20260507030038 58 178 4.0 9.0 0.00 0.00 0.00 82 1014.1
20260507024538 59 174 5.0 9.0 0.00 0.00 0.00 81 1013.9
20260507023045 60 164 3.0 6.0 0.00 0.00 0.00 79 1013.6
20260507021538 61 190 3.0 9.0 0.00 0.00 0.00 78 1013.6
20260507020052 62 202 5.0 9.0 0.00 0.00 0.00 76 1013.6
20260507014536 63 183 6.0 10.0 0.00 0.00 0.00 75 1013.6
20260507013046 65 225 7.0 11.0 0.00 0.00 0.00 74 1013.6
20260507011533 66 211 7.0 10.0 0.00 0.00 0.00 71 1013.4
20260507010032 68 208 5.0 11.0 0.00 0.00 0.00 70 1013.4
20260507004525 69 197 7.0 11.0 0.00 0.00 0.00 66 1013.4
20260507003021 73 222 3.0 7.0 0.00 0.00 0.00 61 1013.4
20260507001521 74 323 3.0 10.0 0.00 0.00 0.00 59 1013.4
20260507000020 74 31 2.0 10.0 0.00 0.00 0.00 60 1013.4
20260506234519 73 16 3.0 10.0 0.00 0.00 0.00 61 1013.3
20260506233019 75 38 3.0 10.0 0.00 0.00 0.00 61 1013.5
20260506231517 74 346 5.0 13.0 0.00 0.00 0.00 61 1013.5
20260506230013 74 53 2.0 9.0 0.00 0.00 0.00 60 1013.7
20260506224511 75 35 2.0 10.0 0.00 0.00 0.00 58 1013.9
20260506223006 74 32 1.0 10.0 0.00 0.00 0.00 60 1014.0
20260506221502 74 49 2.0 7.0 0.00 0.00 0.00 60 1014.2
20260506220059 73 128 4.0 9.0 0.00 0.00 0.00 58 1014.4
20260506214557 73 98 3.0 6.0 0.00 0.00 0.00 59 1014.5
20260506213110 72 28 1.0 8.0 0.00 0.00 0.00 59 1014.7
20260506211548 72 48 2.0 7.0 0.00 0.00 0.00 59 1014.8
20260506210042 71 69 2.0 12.0 0.00 0.00 0.00 62 1015.0
20260506204538 70 65 1.0 10.0 0.00 0.00 0.00 64 1015.1
20260506203034 70 105 1.0 8.0 0.00 0.00 0.00 61 1015.3